[[{"header":{"parameterUnit":"m.s-1","parameterCategory":1,"la1":30.2992,"la2":30.254,"lo1":-89.0895,"lo2":-89.0443,"dy":0.0025,"dx":0.0025,"nx":19,"ny":19,"refTime":"2026-04-25T21:00:00:Z","depth":0,"parameterNumber":2,"parameterNumberName":"U-component_of_WINDS"},"data":[0,0,0,1.3186,1.3187,1.3277,1.3278,1.3382,1.3382,0,0,0,0,0,0,0,0,0,0,0,1.3149,1.315,1.3185,1.3187,1.3277,1.3278,1.3381,1.3382,0,0,0,0,0,0,0,0,0,0,0,1.3149,1.315,1.315,1.3188,1.3277,1.3278,1.3381,1.3318,0,0,0,0,0,0,0,0,0,0,1.3233,1.3189,1.315,1.315,1.3188,1.3277,1.3278,1.3315,1.3322,1.3335,0,1.3342,0,1.3364,1.3388,1.3389,0,0,0,1.3195,1.3183,1.3216,1.315,1.3189,1.3277,1.3239,1.3319,1.3327,1.3344,1.3344,1.3348,1.3365,1.3389,1.3389,1.3435,1.3434,0,0,1.319,1.3161,1.3211,1.3221,1.3203,1.3236,1.3242,1.3324,1.3322,1.3344,1.3351,1.3367,1.3389,1.339,1.3435,1.3435,0,0,0,1.3171,1.3157,1.3188,1.3216,1.3233,1.3238,1.3245,1.3319,1.3331,1.3352,1.3368,1.339,1.3391,1.3435,1.3435,1.3398,0,0,0,1.3168,1.3146,1.3186,1.3169,1.3231,1.3276,1.3237,1.3326,1.3336,1.3368,1.339,1.3392,1.3435,1.3435,1.3399,1.3385,0,0,0,1.3147,1.3143,1.3153,1.3167,1.3204,1.3276,1.3293,1.3328,1.3345,1.3389,1.3392,1.3435,1.3435,1.34,1.3387,1.3388,0,0,0,1.3116,1.3119,1.3152,1.3162,1.3203,1.3252,1.3293,1.3331,1.3364,1.339,1.3435,1.3435,1.3401,1.3388,1.3389,1.3382,1.3377,0,0,1.3104,1.3117,1.3125,1.3157,1.3192,1.324,1.3271,1.333,1.3362,1.3409,1.3411,1.3399,1.3387,1.3388,1.3358,1.3354,0,0,0,1.3112,1.3117,1.3133,1.3162,1.3206,1.3243,1.33,1.3322,1.3364,1.3379,1.3401,1.3395,1.3397,1.3395,1.3391,1.3394,1.3433,1.3433,1.3433,1.3051,1.3091,1.3108,1.316,1.3188,1.3247,1.3274,1.3314,1.3347,1.3352,1.3366,1.3343,1.3339,1.3337,1.334,1.3367,1.3366,1.3366,1.3366,1.3036,1.305,1.3095,1.3127,1.317,1.3199,1.3258,1.328,1.3315,1.3335,1.3339,1.3357,1.333,1.3335,1.3364,1.3364,1.3365,1.3365,1.3365,1.3,1.3014,1.304,1.3087,1.312,1.3173,1.3204,1.3243,1.3281,1.3284,1.3303,1.3304,1.3309,1.3291,1.3291,1.3291,1.3291,1.3291,1.3291,1.2951,1.2982,1.3002,1.305,1.3075,1.3113,1.3174,1.32,1.3239,1.3266,1.3266,1.3299,1.332,1.3324,1.3289,1.329,1.329,1.329,1.329,1.2919,1.2933,1.2963,1.2987,1.3049,1.3079,1.3129,1.318,1.3207,1.3221,1.3255,1.3264,1.3281,1.3284,1.3287,1.3246,1.3246,1.3246,1.3246,1.2887,1.29,1.294,1.2977,1.3018,1.3067,1.3103,1.3152,1.3205,1.3225,1.3238,1.3246,1.3248,1.3264,1.3268,1.3271,1.3226,1.3226,1.3226,1.287,1.2888,1.2909,1.296,1.3011,1.3055,1.309,1.3133,1.3197,1.3226,1.3242,1.3243,1.3257,1.326,1.3288,1.3293,1.3301,0,0]},{"header":{"parameterUnit":"m.s-1","parameterCategory":1,"la1":30.2992,"la2":30.254,"lo1":-89.0895,"lo2":-89.0443,"dy":0.0025,"dx":0.0025,"nx":19,"ny":19,"refTime":"2026-04-25T21:00:00:Z","depth":0,"parameterNumber":3,"parameterNumberName":"V-component_of_WINDS"},"data":[0,0,0,3.4907,3.4908,3.4971,3.4971,3.5036,3.5036,0,0,0,0,0,0,0,0,0,0,0,3.4882,3.4882,3.4907,3.4908,3.4971,3.4971,3.5036,3.5036,0,0,0,0,0,0,0,0,0,0,0,3.4882,3.4882,3.4882,3.4909,3.4971,3.4971,3.5035,3.4993,0,0,0,0,0,0,0,0,0,0,3.4934,3.4906,3.4882,3.4882,3.4909,3.4971,3.4971,3.4991,3.4996,3.5001,0,3.5008,0,3.5023,3.504,3.504,0,0,0,3.4912,3.4902,3.4925,3.4882,3.4909,3.4971,3.4944,3.4994,3.4999,3.5007,3.5009,3.5011,3.5024,3.504,3.504,3.5066,3.5066,0,0,3.4909,3.4889,3.4922,3.4928,3.4921,3.4942,3.4946,3.4997,3.4996,3.5009,3.5013,3.5025,3.504,3.5041,3.5066,3.5066,0,0,0,3.4896,3.4886,3.4909,3.4925,3.4938,3.4944,3.4948,3.4994,3.5003,3.5014,3.5026,3.5041,3.5041,3.5066,3.5066,3.5044,0,0,0,3.4894,3.4879,3.4907,3.4895,3.4937,3.4967,3.4943,3.4999,3.5006,3.5026,3.5041,3.5042,3.5067,3.5066,3.5045,3.5037,0,0,0,3.488,3.4877,3.4885,3.4894,3.4921,3.4967,3.4979,3.5001,3.5013,3.504,3.5042,3.5067,3.5066,3.5046,3.5038,3.5038,0,0,0,3.4858,3.4864,3.4884,3.4894,3.492,3.4954,3.4979,3.5005,3.5025,3.5041,3.5067,3.5066,3.5046,3.5039,3.5038,3.5033,3.503,0,0,3.4854,3.4862,3.487,3.489,3.4916,3.4946,3.4967,3.5004,3.5023,3.505,3.5051,3.5045,3.5038,3.5038,3.5018,3.5015,0,0,0,3.4862,3.4867,3.4878,3.4898,3.4927,3.4951,3.4987,3.5,3.5024,3.5034,3.5046,3.5042,3.5043,3.5041,3.5038,3.5039,3.5065,3.5065,3.5065,3.4827,3.4853,3.4867,3.49,3.4918,3.4955,3.4971,3.4995,3.5014,3.5016,3.5025,3.501,3.5007,3.5005,3.5006,3.5025,3.5025,3.5024,3.5024,3.4822,3.4833,3.486,3.4883,3.4909,3.4927,3.4961,3.4974,3.4993,3.5006,3.5007,3.5018,3.5001,3.5003,3.5023,3.5023,3.5023,3.5024,3.5024,3.4802,3.4812,3.4829,3.486,3.488,3.4912,3.4929,3.4952,3.4973,3.4975,3.4985,3.4985,3.4988,3.4978,3.4978,3.4978,3.4978,3.4978,3.4978,3.4774,3.4794,3.4807,3.4839,3.4854,3.4876,3.4912,3.4926,3.4947,3.4962,3.4962,3.498,3.4996,3.4999,3.4977,3.4977,3.4977,3.4978,3.4978,3.4759,3.4766,3.4786,3.4802,3.4839,3.4856,3.4885,3.4912,3.4927,3.4934,3.4952,3.496,3.4969,3.4972,3.4974,3.4948,3.4948,3.4948,3.4948,3.4741,3.4749,3.4774,3.4797,3.4821,3.4849,3.4868,3.4895,3.4923,3.4933,3.494,3.4945,3.4946,3.4955,3.4958,3.496,3.4931,3.4931,3.4931,3.4733,3.4743,3.4757,3.4787,3.4817,3.4842,3.486,3.4882,3.4915,3.4931,3.4941,3.4941,3.495,3.4952,3.4968,3.4971,3.4977,0,0]}]]